Weather History for Hamilton, OH

Change the Weather History Date:

Monday, October 28, 2013

  Actual Average (KCVG) Record (KCVG)
Temperature  
Mean Temperature 44 °F 52 °F  
Max Temperature 63 °F 62 °F 84 °F (1927)
Min Temperature 26 °F 42 °F 19 °F (1976)
Degree Days  
Heating Degree Days 21 13  
Month to date heating degree days 262  
Since 1 July heating degree days 320  
Cooling Degree Days 0 0  
Month to date cooling degree days 16  
Year to date cooling degree days 1121  
Moisture  
Dew Point 32 °F    
Average Humidity 74    
Maximum Humidity 92    
Minimum Humidity 35    
Precipitation  
Precipitation 0.00 in 0.10 in 2.15 in (1883)
Month to date precipitation 2.97  
Year to date precipitation 35.39  
Snow  
Snow 0.00 in 0.00 in 2.20 in (1925)
Month to date snowfall 0.3  
Since 1 July snowfall 0.3  
Since 1 September snowfall 0.3  
Snow Depth -    
Sea Level Pressure  
Sea Level Pressure 30.24 in    
Wind  
Wind Speed 1 mph (NNW)    
Max Wind Speed 6 mph    
Max Gust Speed -    
Visibility 9 miles    
Events Snow    
T = Trace of Precipitation, MM = Missing Value Source: NWS Daily Summary

Daily Weather History Graph

Daily Weather History Graph

Search for Another Location

Airport:

Trip Planner

Search our weather history database for the weather conditions in past years. The results will help you decide how hot, cold, wet, or windy it might be!

Date:

Astronomy

Oct. 28, 2013 Rise Set
Actual Time 8:01 AM EDT 6:41 PM EDT
Civil Twilight 7:34 AM EDT 7:08 PM EDT
Nautical Twilight 7:02 AM EDT 7:40 PM EDT
Astronomical Twilight 6:31 AM EDT 8:11 PM EDT
Moon 1:56 AM EDT (10/28) 3:20 PM EDT (10/28)
Length of Visible Light 11h 34m
Length of Day
10h 39m
Waning Crescent, 34% of the Moon is Illuminated
Oct 28
Waning Crescent
Nov 3
New
Nov 10
First Quarter
Nov 17
Full
Nov 25
Last Quarter

Hourly Weather History & Observations

Time (EDT) Temp. Dew Point Humidity Pressure Visibility Wind Dir Wind Speed Gust Speed Precip Events Conditions
12:53 AM 30.9 °F 28.9 °F 92% 30.13 in 9.0 mi Calm Calm - N/A   Clear
1:53 AM 30.0 °F 27.0 °F 88% 30.13 in 8.0 mi Calm Calm - N/A   Clear
2:53 AM 28.9 °F 27.0 °F 92% 30.14 in 5.0 mi Calm Calm - 0.00 in Snow Light Snow
3:53 AM 28.9 °F 27.0 °F 92% 30.16 in 7.0 mi Calm Calm - 0.00 in Snow Light Snow
4:53 AM 28.0 °F 25.0 °F 88% 30.17 in 7.0 mi Calm Calm - 0.00 in Snow Light Snow
5:53 AM 28.0 °F 25.0 °F 88% 30.19 in 8.0 mi Calm Calm - 0.00 in   Clear
6:53 AM 27.0 °F 24.1 °F 89% 30.21 in 10.0 mi Calm Calm - N/A   Clear
7:53 AM 26.1 °F 24.1 °F 92% 30.22 in 8.0 mi Calm Calm - N/A   Clear
8:53 AM 28.9 °F 27.0 °F 92% 30.25 in 6.0 mi Calm Calm - N/A   Clear
9:53 AM 37.9 °F 35.1 °F 89% 30.27 in 7.0 mi Calm Calm - N/A   Clear
10:01 AM 39.2 °F 35.6 °F 87% 30.25 in 7.0 mi Calm Calm - N/A   Partly Cloudy
10:53 AM 46.0 °F 39.0 °F 76% 30.27 in 8.0 mi Calm Calm - N/A   Clear
11:53 AM 54.0 °F 39.0 °F 57% 30.27 in 10.0 mi ENE 3.5 mph - N/A   Clear
12:53 PM 57.9 °F 37.0 °F 46% 30.27 in 10.0 mi Variable 3.5 mph - N/A   Clear
1:53 PM 60.1 °F 35.1 °F 39% 30.25 in 10.0 mi Calm Calm - N/A   Clear
2:53 PM 62.1 °F 34.0 °F 35% 30.23 in 10.0 mi NW 3.5 mph - N/A   Clear
3:53 PM 62.1 °F 34.0 °F 35% 30.22 in 10.0 mi Calm Calm - N/A   Clear
4:53 PM 62.1 °F 35.1 °F 37% 30.23 in 10.0 mi NW 3.5 mph - N/A   Clear
5:53 PM 59.0 °F 35.1 °F 41% 30.25 in 10.0 mi North 5.8 mph - N/A   Clear
6:53 PM 48.0 °F 37.9 °F 68% 30.26 in 10.0 mi Calm Calm - N/A   Clear
7:53 PM 43.0 °F 35.1 °F 74% 30.28 in 10.0 mi Calm Calm - N/A   Clear
8:53 PM 39.0 °F 34.0 °F 82% 30.29 in 10.0 mi Calm Calm - N/A   Clear
9:53 PM 36.0 °F 33.1 °F 89% 30.30 in 10.0 mi Calm Calm - N/A   Clear
10:53 PM 35.1 °F 33.1 °F 92% 30.32 in 10.0 mi Calm Calm - N/A   Clear
11:53 PM 34.0 °F 32.0 °F 92% 30.33 in 10.0 mi Calm Calm - N/A   Clear